Tracking 19817 objects as of 17-Aug-2019
HD Live streaming from Space Station
objects crossing your sky now

COSMOS 733

Track COSMOS 733 now!
10-day predictions
COSMOS 733 is classified as:


NORAD ID: 7822
Int'l Code: 1975-045B
Perigee: 1,476.5 km
Apogee: 1,561.1 km
Inclination: 74.0 °
Period: 116.2 minutes
Semi major axis: 7889 km
RCS: 0.717 m2 (medium)
Launch date: May 28, 1975
Source: Commonwealth of Independent States (former USSR) (CIS)
Launch site: PLESETSK MISSILE AND SPACE COMPLEX (PKMTR)
aabbcc
Your satellite tracking list
Your tracking list is empty




NASA's NSSDC Master Catalog

Two Line Element Set (TLE):
1  7822U 75045B   19228.81791243 -.00000015  00000-0  46438-5 0  9994
2  7822  74.0164 108.9785 0053636 272.3372 154.9962 12.38804360    56
Source of the keplerian elements: AFSPC